Flag for U.S.A. Weather past 2 weeks in Lubbock, Texas, U.S.A.

Now
85 °F

Clear.


Feels Like: 83 °F
Forecast: 71 / 98 °F
Wind: 10 mph from South

Location: Lubbock International Airport

Current Time: Sep 1, 2014 at 11:20:38 PM

Latest Report: Sep 1, 2014 at 10:53 PM


Visibility: 10 mi

Pressure: 29.71 "Hg

Humidity: 35%

Dew point: 54 °F

Location of LubbockLocation

Historic Weather in Lubbock — Graph

°F

Lubbock temperature yesterday

Maximum temperature yesterday: 100 °F (at 3:53 PM)
Minimum temperature yesterday: 73 °F (at 7:53 AM)
Average temperature yesterday: 85 °F

Past Weeks' High & Low Weather Summary

 TemperatureHumidityPressure
High104 °F (Sep 1, 4:53 PM)97% (Aug 19, 5:53 AM)30.01 "Hg (Aug 19, 5:53 AM)
Low62 °F (Aug 30, 6:53 AM)14% (Sep 1, 5:53 PM)29.65 "Hg (Sep 1, 5:53 PM)
Average81 °F52%29.83 "Hg
* Reported Aug 17 9:53 PM — Sep 1 9:53 PM, Lubbock, Weather by CustomWeather, © 2014

Note: Actual official high and low records may vary slightly from our data, if they occured in-between our weather recording intervals... More about our weather records

Advertising

Lubbock weather history for previous 24 hours

 ConditionsComfort  
Time TempWeatherWind HumidityBarometerVisibility
9:53 PM
Sep 1
87 °FClear.12 mph33%29.69 "Hg10 mi
8:53 PM92 °FPassing clouds.12 mph26%29.68 "Hg10 mi
7:53 PM95 °FPassing clouds.9 mph19%29.66 "Hg10 mi
6:53 PM100 °FPassing clouds.16 mph15%29.65 "Hg10 mi
5:53 PM102 °FPassing clouds.14 mph14%29.65 "Hg10 mi
4:53 PM104 °FPassing clouds.14 mph15%29.65 "Hg10 mi
3:53 PM102 °FPassing clouds.8 mph17%29.67 "Hg10 mi
2:53 PM99 °FPassing clouds.9 mph22%29.70 "Hg10 mi
1:53 PM96 °FSunny.9 mph26%29.72 "Hg10 mi
12:53 PM94 °FSunny.10 mph30%29.73 "Hg10 mi
11:53 AM91 °FSunny.13 mph36%29.75 "Hg10 mi
10:53 AM86 °FSunny.17 mph45%29.75 "Hg10 mi
9:53 AM82 °FSunny.20 mph51%29.75 "Hg10 mi
8:53 AM78 °FSunny.17 mph58%29.74 "Hg10 mi
7:53 AM76 °FClear.14 mph60%29.73 "Hg10 mi
6:53 AM76 °FPassing clouds.17 mph60%29.71 "Hg10 mi
5:53 AM76 °FPassing clouds.16 mph60%29.70 "Hg10 mi
4:53 AM77 °FPassing clouds.16 mph58%29.71 "Hg10 mi
3:53 AM78 °FPassing clouds.17 mph56%29.71 "Hg10 mi
2:53 AM79 °FPassing clouds.22 mph54%29.71 "Hg10 mi
1:53 AM80 °FClear.23 mph51%29.72 "Hg10 mi
12:53 AM82 °FClear.22 mph46%29.71 "Hg10 mi
11:53 PM
Aug 31
83 °FClear.23 mph43%29.71 "Hg10 mi
Weather by CustomWeather, © 2014

See weather overviewHow to use our weather pages